Simultaneous Nadir Overpasses (SNOs) Predictions

Prediction of SNOs near US between AQUA and NPP Satellite Orbit:

Table of predicted SNOs near US for the next 10.0 days since TLE Epoch: 3/1/2019
Index Date (AQUA) Time (AQUA) AQUA Lat,Lon Date (NPP) Time (NPP) NPP Lat,Lon Distance(km) Time Diff (sec)
1 03/03/2019 09:24:34 20.75,-114.05 03/03/2019 09:16:26 20.85,-114.56 54.53 488
2 03/06/2019 06:30:45 45.75, -65.23 03/06/2019 06:30:35 46.11, -67.31 165.40 10
3 03/06/2019 08:08:28 49.91, -88.31 03/06/2019 08:10:50 50.42, -90.86 189.91 142
4 03/06/2019 09:47:21 49.92,-113.03 03/06/2019 09:52:18 50.53,-116.18 234.28 297
5 03/08/2019 19:06:38 49.95, -92.53 03/08/2019 19:01:06 49.64, -94.42 139.92 332
6 03/08/2019 20:45:31 49.94,-117.25 03/08/2019 20:42:34 49.54,-119.75 185.23 177




NCC Satellite Simultaneous Nadir Overpasses (SNOs) Prediction Service
